GW0207 Weather Reports


Display with metric or nautical units.
time (UTC)temp
F
wind
direction
speed
MPH
gust
MPH
rain 1hr
in
rain 24hr
in
rain mn
in
humidity
%
barometer
mb
20260509032628 57 233 0.0 0.0 0.00 0.00 0.00 78 1014.6
20260509032130 57 233 0.0 0.0 0.00 0.00 0.00 78 1014.5
20260509031630 57 233 0.0 0.0 0.00 0.00 0.00 78 1014.4
20260509031129 57 214 0.0 0.0 0.00 0.00 0.00 79 1014.4
20260509030630 57 193 0.0 0.0 0.00 0.00 0.00 78 1014.4
20260509030129 57 193 0.0 0.0 0.00 0.00 0.00 77 1014.6
20260509025631 57 181 0.0 0.0 0.00 0.00 0.00 76 1014.5
20260509025130 57 181 0.0 0.0 0.00 0.00 0.00 77 1014.7
20260509024629 57 181 0.0 0.0 0.00 0.00 0.00 76 1014.6
20260509024129 57 181 0.0 0.0 0.00 0.00 0.00 77 1014.7
20260509023629 57 181 0.0 0.0 0.00 0.00 0.00 76 1014.7
20260509023129 57 181 0.0 0.0 0.00 0.00 0.00 76 1014.7
20260509022831 57 181 0.0 0.0 0.00 0.00 0.00 74 1014.6
20260509022821 57 182 0.0 0.0 0.00 0.00 0.00 75 1014.7
20260509021629 57 182 0.0 0.0 0.00 0.00 0.00 74 1014.6
20260509021353 58 181 0.0 0.0 0.00 0.00 0.00 74 1014.6
20260509020631 58 182 0.0 0.0 0.00 0.00 0.00 74 1014.6
20260509020131 58 181 0.0 0.0 0.00 0.00 0.00 72 1014.6
20260509015633 58 182 0.0 0.0 0.00 0.00 0.00 72 1014.5
20260509015130 58 181 0.0 0.0 0.00 0.00 0.00 73 1014.5
20260509014632 58 182 0.0 0.0 0.00 0.00 0.00 72 1014.5
20260509014133 59 181 0.0 0.0 0.00 0.00 0.00 72 1014.6
20260509013631 59 181 0.0 0.0 0.00 0.00 0.00 71 1014.6
20260509013131 59 182 0.0 0.0 0.00 0.00 0.00 71 1014.6
20260509012629 59 182 0.0 0.0 0.00 0.00 0.00 70 1014.4
20260509012130 59 182 0.0 0.0 0.00 0.00 0.00 69 1014.3
20260509011628 59 181 0.0 0.0 0.00 0.00 0.00 69 1014.3
20260509011129 60 182 0.0 0.0 0.00 0.00 0.00 69 1014.3
20260509010629 60 181 0.0 0.0 0.00 0.00 0.00 68 1014.0
20260509010129 60 181 0.0 0.0 0.00 0.00 0.00 67 1014.0
20260509005629 60 182 0.0 0.0 0.00 0.00 0.00 67 1014.0
20260509005128 60 181 0.0 0.0 0.00 0.00 0.00 65 1013.9
20260509004629 61 181 0.0 0.0 0.00 0.00 0.00 64 1013.8
20260509004352 61 182 0.0 0.0 0.00 0.00 0.00 64 1013.8
20260509003629 62 182 0.0 0.0 0.00 0.00 0.00 62 1013.6
20260509003129 62 181 0.0 0.0 0.00 0.00 0.00 61 1013.7
20260509002628 62 181 0.0 0.0 0.00 0.00 0.00 60 1013.8
20260509002130 63 182 0.0 0.0 0.00 0.00 0.00 59 1013.7
20260509001630 63 181 0.0 0.0 0.00 0.00 0.00 59 1013.8
20260509001129 63 181 0.0 0.0 0.00 0.00 0.00 57 1013.8
20260509000849 64 182 0.0 0.0 0.00 0.00 0.00 57 1013.7
20260509000128 64 181 0.0 0.0 0.00 0.00 0.00 58 1013.8
20260508235847 65 165 0.0 0.0 0.00 0.00 0.00 55 1013.7
20260508235129 65 164 0.0 0.0 0.00 0.00 0.00 55 1013.8
20260508234629 66 164 0.0 0.0 0.00 0.00 0.00 52 1013.7
20260508234129 66 164 0.0 0.0 0.00 0.00 0.00 51 1013.7
20260508233631 67 159 0.0 0.0 0.00 0.00 0.00 53 1013.7
20260508233131 67 158 0.0 0.0 0.00 0.00 0.00 50 1013.5
20260508232851 67 220 0.0 0.0 0.00 0.00 0.00 49 1013.5
20260508232131 68 234 0.0 1.0 0.00 0.00 0.00 50 1013.4
20260508231852 68 240 0.0 1.0 0.00 0.00 0.00 49 1013.2
20260508231131 68 47 0.0 1.0 0.00 0.00 0.00 48 1013.3
20260508230631 68 53 0.0 1.0 0.00 0.00 0.00 48 1013.3
20260508230131 68 287 0.0 1.0 0.00 0.00 0.00 47 1013.3
20260508225632 69 50 0.0 2.0 0.00 0.00 0.00 46 1013.3
20260508225131 69 60 0.0 2.0 0.00 0.00 0.00 46 1013.4
20260508224631 69 49 0.0 1.0 0.00 0.00 0.00 47 1013.4
20260508224131 69 28 0.0 1.0 0.00 0.00 0.00 47 1013.3
20260508223632 69 55 0.0 1.0 0.00 0.00 0.00 47 1013.2
20260508223131 69 55 0.0 1.0 0.00 0.00 0.00 47 1013.2
20260508222856 69 164 0.0 1.0 0.00 0.00 0.00 48 1013.0
20260508222131 69 233 0.0 1.0 0.00 0.00 0.00 48 1013.2
20260508221630 69 47 0.0 1.0 0.00 0.00 0.00 47 1013.3
20260508221132 69 302 0.0 5.0 0.00 0.00 0.00 48 1013.2
20260508220629 69 180 0.0 5.0 0.00 0.00 0.00 44 1013.2
20260508220129 70 151 0.0 1.0 0.00 0.00 0.00 46 1013.2
20260508215629 70 93 0.0 1.0 0.00 0.00 0.00 45 1013.1
20260508215128 70 94 0.0 1.0 0.00 0.00 0.00 46 1013.0
20260508214630 70 76 0.0 1.0 0.00 0.00 0.00 44 1013.1
20260508214129 70 204 0.0 0.0 0.00 0.00 0.00 45 1013.1
20260508213629 70 204 0.0 1.0 0.00 0.00 0.00 45 1013.1
20260508213131 70 204 0.0 1.0 0.00 0.00 0.00 45 1013.1
20260508212631 71 28 0.0 1.0 0.00 0.00 0.00 48 1013.1
20260508212130 71 91 0.0 1.0 0.00 0.00 0.00 42 1013.1
20260508211850 71 61 0.0 1.0 0.00 0.00 0.00 44 1013.1
20260508211129 71 229 0.0 1.0 0.00 0.00 0.00 43 1013.2
20260508210628 71 133 0.0 3.0 0.00 0.00 0.00 43 1013.4
20260508210129 72 79 0.0 3.0 0.00 0.00 0.00 42 1013.4
20260508205629 72 286 0.0 2.0 0.00 0.00 0.00 40 1013.6
20260508205350 72 200 0.0 2.0 0.00 0.00 0.00 42 1013.7
20260508204628 73 110 0.0 4.0 0.00 0.00 0.00 42 1013.8
20260508204129 73 77 0.0 4.0 0.00 0.00 0.00 42 1013.8
20260508203845 73 64 0.0 1.0 0.00 0.00 0.00 40 1013.8
20260508203337 72 43 0.0 5.0 0.00 0.00 0.00 40 1013.7
20260508202613 73 247 0.0 5.0 0.00 0.00 0.00 40 1013.7
20260508202334 73 244 0.0 2.0 0.00 0.00 0.00 40 1013.7
20260508201603 73 58 0.0 2.0 0.00 0.00 0.00 38 1013.6
20260508201105 73 57 0.0 2.0 0.00 0.00 0.00 39 1013.7
20260508200602 72 60 0.0 3.0 0.00 0.00 0.00 38 1013.7
20260508195603 72 204 0.0 3.0 0.00 0.00 0.00 41 1014.1
20260508195104 72 50 0.0 3.0 0.00 0.00 0.00 42 1014.1
20260508194827 72 116 1.0 5.0 0.00 0.00 0.00 40 1014.1
20260508194103 72 265 1.0 5.0 0.00 0.00 0.00 40 1014.2
20260508193605 72 67 0.0 1.0 0.00 0.00 0.00 41 1014.2
20260508193103 72 126 0.0 2.0 0.00 0.00 0.00 40 1014.2
20260508192603 72 93 0.0 2.0 0.00 0.00 0.00 43 1014.4
20260508192103 72 238 0.0 2.0 0.00 0.00 0.00 41 1014.4
20260508191603 72 202 0.0 2.0 0.00 0.01 0.00 42 1014.5
20260508191326 71 345 0.0 2.0 0.00 0.01 0.00 42 1014.6
20260508190828 71 247 0.0 6.0 0.00 0.02 0.00 42 1014.7
20260508185602 71 65 1.0 3.0 0.00 0.02 0.00 44 1014.8
20260508185056 71 207 0.0 3.0 0.00 0.02 0.00 42 1014.9
20260508184551 71 223 0.0 3.0 0.00 0.02 0.00 46 1015.0
20260508184045 71 26 0.0 4.0 0.00 0.02 0.00 45 1015.0
20260508183539 70 62 1.0 4.0 0.00 0.02 0.00 45 1015.2
20260508183254 70 89 1.0 4.0 0.00 0.02 0.00 41 1015.2
20260508182525 70 197 1.0 5.0 0.00 0.02 0.00 43 1015.3
20260508182018 70 223 1.0 5.0 0.00 0.02 0.00 40 1015.4
20260508181512 71 254 0.0 4.0 0.00 0.02 0.00 44 1015.4
20260508181006 71 281 0.0 3.0 0.00 0.02 0.00 43 1015.4
20260508180507 71 245 1.0 5.0 0.00 0.02 0.00 48 1015.5
20260508180007 70 228 0.0 5.0 0.00 0.02 0.00 43 1015.5
20260508175507 70 3 1.0 4.0 0.00 0.02 0.00 44 1015.6
20260508175006 70 247 1.0 4.0 0.00 0.02 0.00 41 1015.6
20260508174953 70 225 1.0 4.0 0.00 0.03 0.00 44 1015.7
20260508174005 70 60 0.0 2.0 0.00 0.03 0.00 42 1015.6
20260508173503 70 240 0.0 4.0 0.00 0.03 0.00 44 1015.7
20260508173003 70 231 0.0 4.0 0.00 0.03 0.00 43 1015.7
20260508172506 70 45 0.0 1.0 0.00 0.03 0.00 45 1015.7
20260508172003 70 282 0.0 3.0 0.00 0.03 0.00 47 1015.8
20260508171505 69 221 0.0 3.0 0.00 0.03 0.00 48 1015.8
20260508171004 69 7 0.0 3.0 0.00 0.03 0.00 47 1015.9
20260508170502 69 353 0.0 3.0 0.00 0.04 0.00 48 1016.0
20260508170005 69 256 0.0 3.0 0.00 0.05 0.00 50 1016.2
20260508165504 69 356 0.0 1.0 0.00 0.05 0.00 48 1016.2
20260508165003 69 270 0.0 1.0 0.00 0.05 0.00 49 1016.3
20260508164726 68 15 0.0 4.0 0.00 0.06 0.00 50 1016.4
20260508164004 68 95 0.0 4.0 0.00 0.06 0.00 48 1016.5
20260508163503 67 81 0.0 4.0 0.00 0.06 0.00 49 1016.5
20260508163004 67 232 1.0 4.0 0.00 0.06 0.00 54 1016.6
20260508162502 67 213 0.0 4.0 0.00 0.07 0.00 47 1016.8
20260508162235 67 225 0.0 2.0 0.00 0.07 0.00 51 1016.8
20260508161504 67 214 0.0 2.0 0.00 0.07 0.00 50 1016.8
20260508161004 67 104 0.0 2.0 0.00 0.07 0.00 49 1016.9
20260508160502 67 270 0.0 2.0 0.00 0.07 0.00 50 1016.9
20260508160003 66 343 0.0 4.0 0.00 0.07 0.00 51 1017.0
20260508155503 66 238 0.0 4.0 0.00 0.07 0.00 49 1017.1
20260508155003 66 67 0.0 3.0 0.00 0.08 0.00 52 1017.2
20260508154503 66 258 0.0 3.0 0.00 0.09 0.00 52 1017.2
20260508154004 66 239 0.0 2.0 0.00 0.10 0.00 51 1017.3
20260508153503 66 121 0.0 2.0 0.00 0.11 0.00 56 1017.3
20260508153225 65 98 0.0 4.0 0.00 0.12 0.00 51 1017.4
20260508152503 65 100 0.0 4.0 0.00 0.12 0.00 53 1017.3
20260508152004 65 230 0.0 2.0 0.00 0.13 0.00 53 1017.3
20260508151500 65 290 0.0 5.0 0.00 0.14 0.00 54 1017.3
20260508151003 65 65 1.0 5.0 0.00 0.14 0.00 55 1017.3
20260508150503 65 101 0.0 5.0 0.00 0.15 0.00 56 1017.3
20260508150001 64 84 0.0 2.0 0.00 0.16 0.00 57 1017.2
20260508145723 64 90 0.0 1.0 0.00 0.17 0.00 60 1017.2
20260508145225 64 53 0.0 5.0 0.00 0.18 0.00 59 1017.2
20260508144501 64 92 0.0 5.0 0.00 0.20 0.00 57 1017.3
20260508144001 64 161 0.0 2.0 0.00 0.21 0.00 59 1017.2
20260508143724 63 315 0.0 4.0 0.00 0.22 0.00 58 1017.2
20260508143005 63 234 1.0 5.0 0.00 0.23 0.00 58 1017.2
20260508142504 63 49 1.0 5.0 0.00 0.23 0.00 58 1017.1
20260508142223 63 10 0.0 4.0 0.00 0.24 0.00 59 1017.1
20260508141505 63 22 0.0 3.0 0.00 0.24 0.00 60 1017.1
20260508141003 63 237 0.0 3.0 0.00 0.24 0.00 59 1017.0
20260508140504 62 171 0.0 4.0 0.00 0.25 0.00 62 1017.0
20260508140004 62 251 0.0 4.0 0.00 0.26 0.00 62 1017.0
20260508135503 62 216 0.0 2.0 0.00 0.26 0.00 64 1017.0
20260508135003 61 244 0.0 5.0 0.00 0.26 0.00 65 1017.0
20260508134503 61 242 0.0 5.0 0.00 0.26 0.00 65 1017.0
20260508134004 62 212 0.0 2.0 0.00 0.26 0.00 66 1017.1
20260508133722 61 140 0.0 2.0 0.00 0.26 0.00 66 1017.0
20260508133005 60 233 0.0 2.0 0.00 0.26 0.00 68 1016.9
20260508132725 60 100 0.0 2.0 0.00 0.26 0.00 69 1016.9
20260508132004 60 230 0.0 2.0 0.00 0.26 0.00 71 1016.9
20260508131504 59 48 0.0 2.0 0.00 0.27 0.00 74 1016.9
20260508131005 59 73 0.0 3.0 0.00 0.27 0.00 73 1016.8
20260508130502 58 106 0.0 3.0 0.00 0.28 0.00 74 1016.8
20260508130005 58 82 0.0 2.0 0.00 0.29 0.00 75 1016.8
20260508125503 57 24 0.0 2.0 0.00 0.29 0.00 79 1016.8
20260508125005 57 248 0.0 3.0 0.00 0.30 0.00 82 1016.8
20260508124727 56 217 0.0 3.0 0.00 0.30 0.00 84 1016.7
20260508124003 55 44 0.0 1.0 0.00 0.30 0.00 88 1016.7
20260508123723 54 105 0.0 1.0 0.00 0.30 0.00 92 1016.6
20260508123003 53 242 0.0 1.0 0.00 0.31 0.00 94 1016.6
20260508122502 52 74 0.0 1.0 0.00 0.31 0.00 95 1016.5
20260508122002 51 63 0.0 1.0 0.00 0.31 0.00 96 1016.5
20260508121503 51 71 0.0 1.0 0.00 0.31 0.00 97 1016.4
20260508121004 51 225 0.0 2.0 0.00 0.31 0.00 97 1016.4
20260508120503 51 109 0.0 2.0 0.00 0.31 0.00 98 1016.3
20260508120003 50 121 0.0 2.0 0.00 0.31 0.00 98 1016.3
20260508115503 50 100 0.0 1.0 0.00 0.31 0.00 98 1016.1
20260508115004 50 271 0.0 0.0 0.00 0.31 0.00 98 1016.0
20260508114503 50 0 0.0 0.0 0.00 0.31 0.00 98 1016.1
20260508114002 49 0 0.0 1.0 0.00 0.31 0.00 98 1016.0
20260508113504 49 358 0.0 1.0 0.00 0.31 0.00 98 1015.9
20260508113002 49 1 0.0 0.0 0.00 0.31 0.00 97 1015.7
20260508112501 49 1 0.0 0.0 0.00 0.31 0.00 97 1015.8
20260508112001 49 1 0.0 0.0 0.00 0.31 0.00 97 1015.7
20260508111501 48 0 0.0 0.0 0.00 0.31 0.00 97 1015.6
20260508111002 48 0 0.0 2.0 0.00 0.31 0.00 97 1015.6
20260508110501 49 0 0.0 2.0 0.00 0.31 0.00 97 1015.4
20260508110001 48 11 0.0 0.0 0.00 0.31 0.00 97 1015.5
20260508105500 48 282 0.0 0.0 0.00 0.31 0.00 97 1015.4
20260508105002 49 282 0.0 0.0 0.00 0.31 0.00 97 1015.2
20260508104501 49 282 0.0 0.0 0.00 0.31 0.00 97 1015.2
20260508104225 49 236 0.0 0.0 0.00 0.31 0.00 97 1015.0
20260508103501 49 236 0.0 0.0 0.00 0.31 0.00 97 1015.0
20260508103000 49 241 0.0 0.0 0.00 0.31 0.00 97 1014.9
20260508102501 49 241 0.0 0.0 0.00 0.31 0.00 97 1014.9
20260508102001 50 241 0.0 0.0 0.00 0.31 0.00 97 1014.7
20260508101722 50 241 0.0 0.0 0.00 0.31 0.00 97 1014.6
20260508101000 50 241 0.0 0.0 0.00 0.31 0.00 97 1014.6
20260508100504 50 241 0.0 0.0 0.00 0.31 0.00 97 1014.6
20260508100445 50 242 0.0 1.0 0.00 0.31 0.00 97 1014.5
20260508095503 50 241 0.0 1.0 0.00 0.31 0.00 97 1014.4
20260508095222 50 21 0.0 1.0 0.00 0.31 0.00 97 1014.5
20260508094504 50 20 0.0 1.0 0.00 0.31 0.00 97 1014.5
20260508094005 50 20 0.0 0.0 0.00 0.31 0.00 97 1014.4
20260508093946 50 20 0.0 0.0 0.00 0.31 0.00 97 1014.3
20260508093223 50 20 0.0 0.0 0.00 0.31 0.00 97 1014.4
20260508092503 50 20 0.0 0.0 0.00 0.31 0.00 97 1014.4
20260508092003 51 20 0.0 0.0 0.00 0.31 0.00 97 1014.3
20260508091505 51 20 0.0 0.0 0.00 0.31 0.00 97 1014.2
20260508091223 51 20 0.0 0.0 0.00 0.31 0.00 97 1014.2
20260508090503 51 20 0.0 0.0 0.00 0.31 0.00 97 1014.2
20260508090224 51 20 0.0 0.0 0.00 0.31 0.00 97 1014.1
20260508085504 51 20 0.0 0.0 0.00 0.31 0.00 97 1014.1
20260508085220 51 20 0.0 0.0 0.00 0.31 0.00 97 1014.0
20260508084500 51 20 0.0 0.0 0.00 0.31 0.00 97 1014.0
20260508084000 51 20 0.0 0.0 0.00 0.32 0.00 97 1014.0
20260508083502 51 20 0.0 0.0 0.00 0.32 0.00 97 1013.8
20260508083001 52 325 0.0 0.0 0.00 0.32 0.00 97 1013.8
20260508082501 52 325 0.0 0.0 0.00 0.32 0.00 97 1013.9
20260508082000 52 253 0.0 0.0 0.00 0.32 0.00 97 1013.8
20260508081502 52 253 0.0 0.0 0.00 0.32 0.00 97 1013.7
20260508081001 52 253 0.0 0.0 0.00 0.32 0.00 97 1013.6
20260508080720 52 253 0.0 0.0 0.00 0.32 0.00 97 1013.5
20260508080000 52 253 0.0 0.0 0.00 0.32 0.00 97 1013.5
20260508075723 52 254 0.0 0.0 0.00 0.32 0.00 97 1013.5
20260508075004 52 254 0.0 0.0 0.00 0.32 0.00 97 1013.5
20260508074503 52 254 0.0 0.0 0.00 0.32 0.00 97 1013.3
20260508074003 52 254 0.0 0.0 0.00 0.32 0.00 97 1013.3
20260508073728 52 254 0.0 0.0 0.00 0.32 0.00 97 1013.2
20260508073005 52 254 0.0 0.0 0.00 0.32 0.00 97 1013.3
20260508072503 52 254 0.0 0.0 0.00 0.32 0.00 97 1013.2
20260508072003 52 254 0.0 0.0 0.00 0.32 0.00 97 1013.1
20260508071504 52 254 0.0 0.0 0.00 0.32 0.00 97 1013.2
20260508071004 52 254 0.0 0.0 0.00 0.32 0.00 97 1013.1
20260508070503 52 254 0.0 0.0 0.00 0.32 0.00 97 1013.0
20260508070229 52 251 0.0 0.0 0.00 0.32 0.00 97 1013.0
20260508065503 52 251 0.0 0.0 0.00 0.32 0.00 97 1013.1
20260508065446 52 251 0.0 0.0 0.00 0.32 0.00 97 1013.0
20260508064504 52 251 0.0 0.0 0.00 0.32 0.00 97 1013.0
20260508064004 52 251 0.0 0.0 0.00 0.32 0.00 97 1013.0
20260508063503 52 251 0.0 0.0 0.00 0.32 0.00 97 1013.1
20260508063003 52 251 0.0 0.0 0.00 0.32 0.00 97 1013.1
20260508062504 52 251 0.0 0.0 0.00 0.32 0.00 96 1013.0
20260508062004 52 251 0.0 0.0 0.00 0.32 0.00 97 1013.0
20260508061503 52 251 0.0 0.0 0.00 0.32 0.00 97 1013.1
20260508061003 52 251 0.0 0.0 0.00 0.32 0.00 97 1013.2
20260508060501 52 251 0.0 0.0 0.00 0.32 0.00 97 1013.2
20260508060001 52 251 0.0 0.0 0.00 0.32 0.00 97 1013.0
20260508055501 52 251 0.0 0.0 0.00 0.32 0.00 97 1013.0
20260508055224 52 251 0.0 0.0 0.00 0.32 0.00 96 1013.1
20260508054502 52 251 0.0 0.0 0.00 0.32 0.00 96 1013.1
20260508054224 52 251 0.0 0.0 0.00 0.32 0.00 96 1013.0
20260508053501 52 251 0.0 0.0 0.00 0.33 0.00 96 1013.0
20260508052959 52 251 0.0 0.0 0.00 0.34 0.00 96 1012.8
20260508052452 52 251 0.0 0.0 0.00 0.36 0.00 96 1012.9
20260508051946 52 251 0.0 0.0 0.00 0.38 0.00 96 1012.9
20260508051441 52 251 0.0 0.0 0.00 0.38 0.00 96 1013.0
20260508050939 52 251 0.0 0.0 0.00 0.38 0.00 96 1013.0
20260508050439 52 251 0.0 0.0 0.00 0.38 0.00 96 1012.8
20260508045937 53 250 0.0 0.0 0.00 0.40 0.00 96 1012.9
20260508045435 53 250 0.0 0.0 0.00 0.41 0.00 96 1013.0
20260508044935 53 250 0.0 0.0 0.00 0.43 0.00 96 1013.0
20260508044435 53 351 0.0 0.0 0.00 0.44 0.00 96 1012.9
20260508043935 53 351 0.0 0.0 0.00 0.45 0.00 96 1012.9
20260508043435 53 351 0.0 0.0 0.00 0.45 0.00 96 1012.7
20260508042933 54 351 0.0 0.0 0.00 0.45 0.00 96 1012.8
20260508042654 54 351 0.0 0.0 0.00 0.45 0.00 96 1012.7
20260508042149 54 351 0.0 0.0 0.00 0.45 0.00 96 1012.7
20260508041924 54 131 0.0 1.0 0.00 0.45 0.00 96 1012.6
20260508041156 54 131 0.0 1.0 0.00 0.45 0.00 96 1012.5
20260508040429 54 152 0.0 0.0 0.00 0.46 0.00 96 1012.3
20260508035929 54 152 0.0 0.0 0.00 0.46 0.46 96 1012.3
20260508035651 54 152 0.0 0.0 0.00 0.46 0.46 96 1012.3
20260508034930 54 152 0.0 0.0 0.00 0.46 0.46 96 1012.3
20260508034429 54 152 0.0 0.0 0.00 0.46 0.46 96 1012.4
20260508034151 54 152 0.0 0.0 0.00 0.46 0.46 96 1012.4